Weather History for North Adams, MA

Change the Weather History Date:

Wednesday, September 12, 2012

  Actual Average Record
Temperature  
Mean Temperature 60 °F -  
Max Temperature 79 °F 71 °F 84 °F (2005)
Min Temperature 41 °F 49 °F 36 °F (2006)
Degree Days  
Heating Degree Days 5    
Growing Degree Days 10 (Base 50)    
Moisture  
Dew Point 47 °F    
Average Humidity 77    
Maximum Humidity 96    
Minimum Humidity 38    
Precipitation  
Precipitation 0.00 in - - ()
Sea Level Pressure  
Sea Level Pressure 30.34 in    
Wind  
Wind Speed 0 mph (North)    
Max Wind Speed 4 mph    
Max Gust Speed -    
Visibility 10 miles    
Events      
Averages and records for this station are not official NWS values.
T = Trace of Precipitation, MM = Missing Value Source: NWS Daily Summary

Daily Weather History Graph

Daily Weather History Graph

Search for Another Location

Airport:

Trip Planner

Search our weather history database for the weather conditions in past years. The results will help you decide how hot, cold, wet, or windy it might be!

Date:

Astronomy

Sep. 12, 2012 Rise Set
Actual Time 6:29 AM EDT 7:07 PM EDT
Civil Twilight 6:01 AM EDT 7:35 PM EDT
Nautical Twilight 5:27 AM EDT 8:08 PM EDT
Astronomical Twilight 4:52 AM EDT 8:43 PM EDT
Moon 2:39 AM EDT (9/12) 4:56 PM EDT (9/12)
Length of Visible Light 13h 34m
Length of Day
12h 37m
Waning Crescent, 14% of the Moon is Illuminated
Sep 12
Waning Crescent
Sep 15
New
Sep 22
First Quarter
Sep 29
Full
Oct 8
Last Quarter

Hourly Weather History & Observations

Time (EDT) Temp. Dew Point Humidity Pressure Visibility Wind Dir Wind Speed Gust Speed Precip Events Conditions
12:52 AM 44.1 °F 42.1 °F 93% 30.31 in 10.0 mi Calm Calm - N/A   Clear
1:52 AM 43.0 °F 41.0 °F 93% 30.32 in 10.0 mi Calm Calm - N/A   Clear
2:52 AM 43.0 °F 41.0 °F 93% 30.33 in 10.0 mi Calm Calm - N/A   Clear
3:52 AM 41.0 °F 39.9 °F 96% 30.34 in 10.0 mi Calm Calm - N/A   Clear
4:52 AM 41.0 °F 39.9 °F 96% 30.35 in 10.0 mi Calm Calm - N/A   Clear
5:52 AM 41.0 °F 39.0 °F 93% 30.36 in 10.0 mi Calm Calm - N/A   Clear
6:52 AM 41.0 °F 39.0 °F 93% 30.38 in 10.0 mi Calm Calm - N/A   Clear
7:52 AM 46.0 °F 44.1 °F 93% 30.38 in 10.0 mi Calm Calm - N/A   Clear
8:52 AM 51.1 °F 48.0 °F 89% 30.38 in 10.0 mi Calm Calm - N/A   Clear
9:52 AM 57.9 °F 48.0 °F 70% 30.38 in 10.0 mi Calm Calm - N/A   Clear
10:52 AM 64.9 °F 50.0 °F 58% 30.37 in 10.0 mi Calm Calm - N/A   Clear
11:52 AM 71.1 °F 51.1 °F 49% 30.35 in 10.0 mi Calm Calm - N/A   Clear
12:52 PM 75.9 °F 51.1 °F 42% 30.34 in 10.0 mi Calm Calm - N/A   Clear
1:52 PM 77.0 °F 51.1 °F 40% 30.32 in 10.0 mi Variable 3.5 mph - N/A   Clear
2:52 PM 78.1 °F 51.1 °F 39% 30.30 in 10.0 mi Calm Calm - N/A   Clear
3:52 PM 79.0 °F 51.1 °F 38% 30.30 in 10.0 mi Calm Calm - N/A   Clear
6:52 PM 66.0 °F 59.0 °F 78% 30.31 in 10.0 mi Calm Calm - N/A   Clear
8:52 PM 57.0 °F 54.0 °F 89% 30.35 in 10.0 mi Calm Calm - N/A   Clear
9:52 PM 55.0 °F 53.1 °F 93% 30.35 in 10.0 mi Calm Calm - N/A   Clear
10:52 PM 54.0 °F 52.0 °F 93% 30.36 in 10.0 mi Calm Calm - N/A   Clear
11:52 PM 53.1 °F 51.1 °F 93% 30.36 in 10.0 mi Calm Calm - N/A   Clear